Theta_e
351 346 342 340 337 338 337 338 336 334 333 330 327 327 331 336 339 340 339 339 339 338 338 338 337 336 333 330 329 326 319 315 315 316 317 320 320 319 317 315 314 312 311 311 310 310 309 309 308 308 308 308 309 309 310 310 310 311 309 313 320 327 332 332 333 333 335 336 336 337 337 337 338 338 337 337 336 336 336 336 337 337 336 335 333
350 346 341 339 338 338 337 337 335 333 330 327 325 325 330 335 340 340 340 340 340 339 339 338 337 337 335 333 331 329 323 316 315 316 318 319 319 317 316 316 315 311 310 310 310 310 309 309 309 309 309 308 309 309 310 310 310 312 310 311 316 324 330 331 331 333 336 336 336 337 336 337 337 337 337 336 336 336 336 336 336 334 331 331 329
350 345 341 339 339 338 337 337 334 331 327 325 325 325 330 335 339 340 340 340 340 339 339 338 337 337 336 335 333 331 328 321 315 315 317 318 317 316 315 317 315 310 310 310 310 310 309 309 309 310 309 309 309 309 309 310 310 311 313 314 317 323 327 329 331 334 336 336 336 337 336 337 336 337 337 336 336 335 336 336 333 326 321 321 321
349 345 340 340 338 337 337 336 333 329 326 325 324 324 329 336 338 340 340 340 340 339 339 337 337 337 336 336 335 333 331 325 317 315 316 317 317 316 317 318 314 310 310 310 310 310 310 309 310 311 311 310 309 309 309 310 310 310 313 315 319 323 325 328 331 334 336 336 337 337 337 337 337 337 337 337 336 336 335 331 326 321 318 316 316
348 344 340 340 338 337 337 335 331 327 327 326 323 321 325 332 336 338 339 339 339 338 338 337 337 337 336 336 335 334 332 329 320 315 315 316 317 319 321 319 313 310 310 310 311 311 312 311 312 313 312 312 310 309 308 309 310 310 311 314 318 321 323 326 329 334 334 333 335 336 337 337 337 336 336 336 336 334 331 327 323 320 318 316 315
347 344 341 339 337 337 337 333 328 326 328 327 323 320 321 325 331 336 337 338 338 338 337 337 337 336 337 336 336 334 333 330 323 316 316 319 324 326 322 317 313 310 311 311 311 314 315 315 315 315 314 313 312 311 309 308 309 310 310 312 315 317 321 323 328 333 330 330 333 334 335 336 335 334 333 333 333 331 329 327 323 319 317 315 313
347 343 340 339 336 336 335 330 325 327 329 327 324 322 321 321 325 330 333 336 336 337 336 336 337 336 336 336 335 334 333 330 325 319 318 323 330 332 322 315 315 313 315 314 314 316 318 318 317 315 314 314 314 313 311 309 309 309 310 311 312 314 316 317 323 327 327 331 333 332 333 333 333 332 331 329 326 326 326 324 322 318 316 315 313
347 343 341 338 336 336 331 326 325 329 329 327 326 324 322 320 321 323 327 332 335 336 336 336 336 336 336 334 333 332 331 328 326 320 321 327 330 331 322 317 320 321 319 317 315 316 318 319 318 316 315 315 315 315 313 312 310 309 309 309 311 312 313 314 316 318 323 330 331 331 332 332 332 331 327 323 319 319 319 319 318 316 315 314 314
346 344 342 340 337 334 327 323 327 330 331 329 329 328 325 322 320 319 322 328 333 335 335 336 336 334 332 331 329 329 328 326 324 321 325 332 330 327 321 320 325 326 322 320 318 316 319 320 318 318 316 315 315 315 315 314 313 311 310 309 309 310 311 312 312 315 323 327 328 330 332 333 332 327 320 317 315 314 315 315 316 314 314 313 313
346 344 344 342 337 333 325 324 329 331 332 332 332 331 329 324 320 320 321 325 330 333 335 335 334 332 330 330 331 333 334 329 322 321 324 327 327 323 319 325 328 327 326 324 320 317 320 320 319 318 317 316 315 315 314 314 314 314 312 311 310 309 310 310 313 319 325 324 321 322 324 329 329 321 313 313 312 312 312 312 312 311 312 312 312
346 344 344 342 339 332 324 325 331 332 333 333 333 331 329 324 320 320 322 326 329 332 333 332 332 331 333 335 337 339 340 335 325 321 320 320 323 322 321 329 330 328 328 325 319 319 321 321 320 318 317 316 315 315 314 315 314 314 314 314 312 311 311 310 319 325 325 320 316 319 320 321 322 317 311 310 311 310 310 309 310 309 310 310 310
345 344 344 342 338 332 324 327 332 333 333 333 333 332 329 322 319 321 323 326 329 331 331 331 331 333 336 338 339 340 340 338 330 322 320 320 323 323 323 329 329 328 329 326 319 319 322 322 322 319 318 317 316 315 315 315 314 315 313 314 313 314 313 312 323 327 324 320 321 327 324 318 315 312 310 310 310 309 310 309 308 308 309 309 308
345 345 343 340 336 330 325 328 332 333 333 333 333 332 328 321 318 321 324 326 329 332 331 331 333 335 338 338 339 339 338 337 332 324 321 321 322 323 325 328 330 330 330 328 321 319 322 323 323 321 320 319 319 317 317 317 315 315 314 315 314 314 314 314 323 324 320 319 321 322 316 312 311 309 310 310 309 309 309 308 308 308 308 308 308
345 345 342 339 335 328 326 328 331 332 333 333 333 333 329 321 317 319 322 324 329 332 332 333 335 337 338 338 338 338 336 333 330 324 321 322 323 323 325 330 331 331 329 326 320 319 322 324 325 323 322 322 322 320 319 318 317 317 316 316 314 315 315 314 319 319 317 318 320 317 309 309 310 309 310 309 310 309 309 309 309 309 308 308 308
345 344 341 338 335 327 326 328 330 332 333 333 333 333 329 322 318 317 319 321 325 328 329 333 335 336 337 336 335 333 329 327 326 323 320 321 323 324 326 330 331 331 327 322 319 319 321 323 325 324 322 322 323 322 321 320 319 319 319 317 316 316 316 318 319 317 318 322 325 320 310 309 309 309 310 309 310 310 310 309 309 309 309 309 309
345 343 340 338 335 328 324 327 330 330 332 333 333 333 330 324 319 317 318 318 320 321 325 329 332 333 333 333 333 331 325 322 324 322 321 321 320 322 327 330 331 330 325 319 318 319 321 323 324 323 322 322 322 322 322 322 321 320 321 319 319 318 317 320 320 319 322 325 327 320 310 310 309 308 308 309 309 309 310 309 309 310 309 309 309
345 342 339 336 335 331 326 330 333 331 332 333 333 333 332 325 319 319 320 321 323 324 327 330 332 332 332 333 333 331 325 323 323 320 324 326 322 321 324 329 331 330 324 319 318 319 321 322 323 323 322 322 322 322 322 322 323 322 322 321 319 319 317 318 321 322 321 322 327 321 312 311 310 309 308 308 308 309 309 309 309 309 309 309 309
345 342 340 336 335 336 333 332 334 334 334 334 334 334 333 326 320 320 321 323 327 328 331 333 333 333 332 333 332 328 325 326 324 323 328 331 329 324 321 325 329 329 324 319 318 319 319 321 322 322 322 323 322 323 323 323 323 323 323 322 321 320 318 320 324 321 315 322 327 319 312 312 311 311 309 308 308 308 309 309 309 309 309 309 309
344 342 340 336 334 338 336 332 335 336 335 336 336 335 333 327 320 320 321 323 326 329 332 334 333 333 333 332 330 327 327 327 327 327 329 331 332 329 325 323 325 327 323 319 319 319 319 321 322 322 322 322 324 324 324 324 324 324 324 324 324 323 322 327 329 324 322 328 326 314 311 313 312 311 310 309 308 308 308 308 308 309 309 308 309
344 342 340 337 336 338 338 335 336 335 335 336 336 335 335 329 320 319 321 322 326 330 333 333 333 332 331 331 330 329 329 329 329 329 328 330 332 332 330 324 322 324 322 320 322 321 321 322 323 323 322 322 324 326 326 326 326 325 325 324 324 325 328 332 332 330 328 327 322 314 313 312 312 312 311 311 310 309 308 307 308 308 308 308 308
344 343 341 340 338 338 339 338 338 336 335 336 335 335 335 332 325 321 321 323 326 329 331 331 331 330 330 329 329 332 332 331 330 329 329 331 331 331 332 327 322 321 322 323 324 323 323 323 322 322 322 322 324 327 328 327 328 327 327 325 324 328 331 332 332 332 331 328 322 316 315 314 313 312 311 312 311 310 308 307 307 307 308 308 308
344 343 341 341 340 339 340 340 339 338 337 337 337 336 335 334 330 326 325 326 326 328 329 328 329 330 329 330 332 334 334 332 331 330 331 332 331 332 331 330 325 320 321 325 326 325 324 325 325 322 322 322 324 327 329 328 329 329 329 327 327 332 331 331 334 333 333 331 324 319 319 317 315 314 313 312 311 311 310 309 308 307 307 307 307
344 343 341 341 341 339 341 341 339 338 338 337 337 336 337 334 330 328 328 327 325 326 328 327 329 331 331 334 336 335 333 332 332 331 332 332 333 333 331 330 326 319 319 324 326 327 326 326 327 326 324 323 323 326 329 330 329 329 328 327 330 333 329 331 334 333 333 331 326 324 321 319 318 316 315 315 313 312 310 309 308 307 307 306 307
343 343 342 342 341 340 340 341 339 337 338 338 337 338 338 335 330 326 327 328 327 327 327 328 332 333 334 336 336 333 332 331 331 331 332 331 332 331 327 324 323 319 318 321 324 327 328 328 329 329 327 324 326 329 331 332 331 330 328 329 332 331 328 332 333 333 332 329 327 327 324 322 320 319 319 318 316 314 312 310 309 308 307 307 306
342 342 342 342 340 339 340 340 339 337 337 337 338 338 337 335 331 325 327 332 332 332 332 333 335 334 334 334 333 331 330 328 326 328 329 327 326 325 322 321 324 322 320 322 321 324 328 329 330 330 330 326 327 332 333 333 331 330 331 331 332 329 329 332 332 332 331 328 328 328 326 325 324 323 321 320 318 316 314 311 310 309 308 307 307
340 341 341 342 340 339 339 340 339 337 337 337 337 337 335 335 332 327 330 335 336 336 336 337 336 334 333 331 330 327 324 323 322 324 325 324 323 325 326 327 327 322 322 326 322 322 327 329 328 328 329 325 326 331 332 332 332 331 333 332 331 330 331 333 331 331 330 328 329 329 328 327 328 328 324 321 320 318 316 313 311 310 309 308 307
338 341 339 340 339 339 339 339 339 338 338 337 336 336 335 335 334 330 331 334 335 336 336 337 334 332 331 329 327 325 324 322 322 323 324 326 327 328 328 328 327 321 322 327 322 321 323 323 322 323 326 325 326 330 330 331 332 332 334 333 332 332 333 334 332 331 329 327 329 330 328 327 328 328 325 323 322 320 319 316 313 311 310 309 308
340 340 338 339 338 339 340 339 339 338 338 337 336 336 335 336 335 333 331 332 334 335 335 333 330 329 329 328 327 326 324 322 322 325 326 328 327 326 326 324 324 322 322 323 320 319 319 318 319 320 324 328 330 330 329 330 330 332 333 333 334 334 334 334 332 332 330 329 330 331 329 327 326 326 325 324 323 321 320 317 315 313 311 310 309
339 339 338 338 337 339 339 338 338 338 338 337 337 337 336 336 336 333 330 332 335 335 333 331 329 330 330 330 330 328 326 324 323 324 325 326 324 323 324 323 323 322 322 322 321 321 320 319 320 322 326 330 331 330 329 329 329 331 333 334 334 334 334 334 333 332 332 331 331 331 330 328 326 326 326 325 324 322 321 319 317 314 312 310 309
330 336 338 337 336 337 338 339 338 338 339 338 338 337 337 336 335 334 330 331 335 335 333 332 331 332 332 332 332 331 331 329 326 325 325 323 323 324 324 325 325 324 324 324 324 322 321 321 322 325 328 331 332 330 329 330 329 331 332 334 334 334 335 334 334 334 334 333 332 331 329 328 327 326 325 324 324 324 323 321 318 315 313 311 310
322 331 337 335 335 337 337 339 339 338 338 338 338 337 337 336 335 335 331 329 333 333 333 333 332 333 332 332 332 333 333 332 330 327 326 324 325 328 328 328 328 326 326 326 326 325 324 323 324 326 328 330 331 329 331 332 332 332 332 333 334 334 334 334 334 334 334 334 331 330 330 329 329 326 324 325 326 327 326 324 322 318 316 314 312
329 330 334 333 334 336 337 338 338 337 338 338 338 336 336 336 335 335 332 329 329 329 331 333 332 332 332 332 333 333 333 333 332 329 328 327 328 330 330 329 329 329 329 328 327 327 327 326 325 326 326 328 329 328 330 332 333 332 332 333 334 334 333 333 333 333 334 332 328 327 329 329 329 327 324 324 327 328 328 326 325 321 318 317 315
331 328 329 331 334 336 337 337 337 338 338 336 336 335 336 336 335 334 332 331 330 328 330 332 333 332 332 332 332 332 331 332 332 331 329 329 330 331 330 331 330 330 330 328 327 327 328 327 326 326 326 327 329 329 329 331 331 331 333 334 333 333 333 333 333 333 332 330 326 325 327 328 328 328 326 324 325 327 328 327 327 324 321 320 319
329 328 328 330 332 333 335 336 336 337 338 335 334 335 335 336 335 334 333 332 331 330 330 332 332 333 333 333 332 331 330 331 332 332 331 331 331 331 331 331 330 328 327 327 327 328 328 328 327 327 326 327 329 330 331 331 330 331 332 333 333 333 333 333 332 331 330 328 327 327 327 328 328 328 328 326 324 324 325 327 328 326 324 325 324
327 329 331 333 335 336 336 336 337 337 337 336 335 335 335 335 335 334 333 332 331 330 330 331 332 333 334 333 333 332 330 330 332 332 332 331 331 331 331 331 329 326 326 326 327 329 329 328 329 329 327 328 330 330 331 331 329 330 330 330 332 332 332 333 331 329 328 327 328 328 328 328 328 329 329 328 326 323 322 324 327 327 326 326 327
326 328 332 334 336 337 336 336 337 336 336 336 336 335 335 335 335 334 333 332 331 330 330 331 333 333 333 333 333 333 331 331 331 331 331 332 332 332 331 330 328 327 326 326 327 329 329 329 329 330 329 329 331 331 330 329 328 329 328 329 330 329 331 332 329 326 326 327 328 328 328 328 328 328 329 329 328 326 322 321 325 327 327 326 327
326 327 332 335 336 336 336 337 336 337 335 335 336 335 335 335 335 334 333 332 331 331 330 332 333 332 333 335 334 333 332 331 330 330 331 333 335 333 331 329 327 328 328 326 327 328 329 329 330 330 330 331 332 330 329 328 328 328 328 329 328 328 331 330 327 326 326 327 328 328 327 328 328 328 328 328 326 327 326 322 322 325 326 327 327
328 329 332 335 336 336 336 338 336 335 335 335 335 335 335 335 334 334 333 331 331 331 331 332 333 332 333 334 334 334 332 330 331 331 331 334 335 332 330 328 327 328 327 326 328 329 329 329 330 329 328 331 331 329 329 328 329 329 328 328 328 328 330 328 327 327 327 327 328 328 327 328 328 328 328 327 326 326 327 324 323 324 324 326 327
328 328 328 331 335 335 336 338 336 334 334 334 335 335 336 335 333 333 331 330 330 332 331 332 332 331 332 333 333 333 331 330 331 332 333 333 333 330 329 328 328 328 327 327 329 330 329 329 330 328 328 330 329 328 329 328 328 328 328 328 328 328 328 328 329 330 329 327 327 328 328 328 328 328 328 326 327 327 326 326 326 326 325 324 325
330 329 328 331 335 336 336 338 336 335 335 334 333 335 336 334 332 332 331 330 331 332 332 332 333 333 333 333 332 331 331 330 330 331 332 331 331 331 329 328 328 328 328 329 330 329 329 329 329 329 328 328 327 327 328 327 328 329 329 329 329 328 328 329 331 331 329 327 327 328 327 328 327 328 328 326 328 328 327 327 326 327 326 323 324
334 334 335 334 336 336 336 336 336 336 334 333 333 335 335 333 332 332 331 332 332 332 332 332 332 333 334 334 332 330 330 329 328 329 330 330 330 330 329 328 328 328 329 331 330 329 328 328 329 328 328 328 327 327 327 327 328 329 330 330 330 330 329 330 331 331 330 327 327 328 327 328 329 329 329 326 327 327 327 328 328 328 328 325 324
336 337 337 336 336 336 336 335 336 336 335 333 334 334 335 333 332 332 332 332 333 332 332 332 332 333 334 333 330 328 329 329 328 329 329 330 330 329 328 328 328 330 331 331 330 328 328 328 328 328 329 329 327 327 328 328 330 330 330 331 330 330 330 330 330 330 330 329 327 327 327 328 329 329 329 327 326 327 328 329 329 329 329 328 326
338 338 336 336 336 337 337 336 336 336 335 334 334 334 334 332 332 333 333 333 333 333 332 331 332 333 333 331 329 328 329 329 329 329 329 330 329 329 329 328 330 332 332 331 330 328 328 328 328 329 328 329 328 327 328 329 330 330 330 331 330 330 329 329 329 329 329 329 329 329 328 328 328 329 329 329 328 329 329 329 329 328 328 328 328
338 338 337 335 336 337 338 338 337 336 335 334 334 334 333 332 333 333 333 333 333 333 332 331 331 332 332 330 329 330 330 329 329 329 329 329 329 328 329 329 330 332 332 332 330 328 328 329 330 330 329 329 327 326 328 329 330 330 330 330 330 329 328 328 329 329 329 329 329 330 329 329 330 329 329 330 330 329 329 329 328 328 328 327 327
338 338 337 335 335 336 336 337 337 336 335 334 334 334 333 332 333 333 333 333 332 331 331 330 330 331 331 330 330 330 329 329 329 329 330 329 328 328 328 328 329 329 330 332 331 328 329 330 331 330 330 330 328 327 326 327 329 331 330 330 330 329 329 329 328 328 328 329 329 329 329 329 329 329 329 329 329 329 329 328 328 328 327 327 326
338 338 337 335 335 335 335 336 337 336 335 334 334 334 333 333 333 333 332 332 331 331 330 331 330 330 330 330 331 329 329 329 329 329 329 328 327 328 327 327 327 327 328 330 331 329 329 331 330 330 330 331 330 329 327 327 329 329 329 330 329 328 330 329 329 328 328 328 329 329 328 328 329 329 329 329 329 329 328 328 328 327 327 326 326
337 337 337 335 335 335 336 336 337 336 334 334 334 334 334 333 332 332 331 331 331 331 331 331 330 330 330 330 330 329 328 329 328 328 328 327 327 327 327 327 327 326 326 327 328 328 328 329 330 330 331 331 330 330 329 328 329 328 327 328 328 328 330 329 329 328 328 328 328 328 327 328 328 328 328 328 328 327 327 327 327 327 326 325 325
337 337 336 335 335 335 336 337 337 336 335 334 334 334 334 332 331 331 331 332 332 330 330 330 330 330 330 330 330 329 329 328 327 328 327 327 327 327 327 327 327 326 325 325 325 325 326 327 328 329 331 331 329 330 330 329 329 328 326 328 328 328 329 329 329 328 328 328 328 327 327 327 327 327 327 327 327 326 325 325 325 325 324 324 325
336 336 335 335 335 335 335 336 336 335 334 334 334 334 333 331 331 332 332 333 332 329 329 329 329 330 329 330 330 329 328 328 327 326 326 327 326 327 326 326 326 325 325 326 325 325 326 325 326 326 328 329 328 329 330 329 329 329 327 327 329 328 328 329 330 328 328 329 328 327 327 327 326 326 326 326 325 324 324 324 324 323 324 324 325
335 335 335 335 334 334 334 335 335 334 334 334 334 334 332 331 332 332 332 332 330 329 328 327 329 330 330 329 327 326 326 327 326 325 325 324 323 323 323 322 322 320 322 324 324 324 324 324 325 324 324 326 328 328 328 328 328 328 328 328 328 328 328 329 329 329 328 328 328 327 326 327 326 326 325 324 324 324 323 323 323 323 324 324 324
335 335 334 334 334 334 334 334 334 334 334 334 334 333 331 331 333 332 331 330 329 329 328 327 328 330 330 328 325 324 325 326 325 323 323 322 320 319 320 320 319 318 319 321 322 322 321 320 322 322 322 324 327 328 327 327 326 327 328 328 328 327 328 328 328 329 328 328 328 328 327 326 326 325 324 323 323 324 324 323 323 323 324 324 324
Wind_Speed
20 27 29 27 26 24 22 20 19 17 17 16 16 17 19 20 21 22 21 20 19 18 17 17 16 16 16 16 16 16 16 17 18 18 19 19 19 19 19 19 18 18 19 19 20 21 22 21 20 20 21 22 22 24 25 25 24 22 21 20 18 19 21 19 19 19 19 19 19 18 19 18 19 19 18 18 17 16 16 15 14 13 13 13 13
22 28 30 28 27 25 22 20 19 17 17 16 17 18 19 21 22 22 21 21 20 18 18 17 16 16 16 15 15 15 15 16 17 17 18 19 19 18 17 17 18 19 19 18 20 21 21 21 20 21 22 24 24 25 26 27 26 24 23 21 18 18 22 22 20 20 20 20 20 20 19 18 19 19 18 17 16 16 15 14 13 12 12 11 11
23 27 31 29 27 25 23 21 19 18 18 17 17 18 20 21 22 22 22 22 21 20 18 17 17 16 16 15 14 14 14 14 15 16 17 18 18 18 17 16 18 18 18 18 19 20 20 20 20 21 23 25 25 26 27 28 28 26 24 22 20 19 22 22 21 21 21 21 20 19 19 18 18 18 17 16 15 15 14 13 12 11 12 12 12
23 27 31 29 26 25 23 21 20 19 18 17 17 18 20 21 22 22 22 23 22 21 19 18 18 17 16 15 14 13 13 13 13 15 16 17 18 18 17 17 18 18 18 18 19 20 19 19 19 21 23 25 26 26 27 27 27 27 25 24 22 21 22 21 21 21 20 20 19 18 17 17 16 16 15 15 14 14 13 12 11 11 12 12 13
23 26 30 29 26 25 23 22 20 20 18 17 17 18 20 21 22 22 23 23 22 21 20 19 18 18 16 15 14 13 13 13 13 14 15 16 16 17 18 17 18 18 18 18 18 19 19 18 18 19 23 25 27 27 27 27 27 27 26 25 23 21 20 18 19 20 18 18 17 16 15 14 14 13 13 12 11 10 10 10 9 10 11 11 13
24 26 30 29 27 25 23 22 21 20 18 17 17 18 19 20 21 21 22 22 22 21 20 19 18 18 16 15 14 13 12 12 12 13 15 15 15 16 17 18 19 19 18 18 18 17 18 18 18 19 22 24 26 27 27 27 26 26 26 25 23 21 19 17 17 17 18 18 14 12 12 12 12 11 11 9 8 8 8 8 8 9 10 11 12
23 26 30 29 27 26 24 22 21 20 18 17 17 17 17 18 19 20 21 22 22 21 21 20 18 17 16 15 14 13 12 12 12 13 15 15 15 16 17 19 19 18 18 18 17 17 18 18 18 19 22 24 26 27 27 27 26 26 26 24 22 20 18 16 16 14 16 17 12 10 10 11 10 9 9 8 8 7 7 6 7 9 9 10 11
21 25 28 28 28 26 24 23 22 20 18 17 16 16 16 17 18 19 20 21 22 21 20 19 18 16 15 14 13 13 13 12 12 12 15 15 15 16 18 19 19 17 17 17 17 17 18 19 19 20 22 23 25 26 27 27 26 26 25 25 23 21 19 16 15 13 14 14 12 11 9 9 9 7 7 6 7 7 6 6 6 7 9 9 10
21 23 23 25 28 26 24 23 22 20 18 17 16 15 15 15 16 18 20 21 21 20 19 18 17 16 15 14 13 12 12 12 12 13 15 16 15 16 18 19 18 17 18 17 17 18 19 20 20 21 22 22 24 25 26 27 27 26 25 25 25 23 22 19 17 15 12 10 10 11 10 9 7 6 6 6 7 7 7 7 7 7 8 8 8
21 22 20 22 27 26 24 23 21 19 17 16 15 14 14 14 15 17 19 20 20 20 19 18 17 16 15 13 13 12 12 13 12 13 15 15 15 17 19 19 17 17 18 17 17 19 19 20 21 21 22 22 23 24 25 26 26 26 25 25 25 25 24 23 21 17 12 10 10 12 12 10 6 7 8 9 9 8 8 9 8 8 8 7 7
21 22 18 20 26 25 24 22 20 19 17 16 14 14 13 13 15 16 18 19 20 19 19 18 17 16 15 14 14 14 15 13 12 13 15 15 15 18 20 19 17 17 17 16 17 19 20 20 21 21 22 22 22 22 23 24 25 24 24 24 25 25 25 26 21 15 13 13 15 14 13 11 9 10 11 11 11 10 10 10 11 10 9 8 8
21 20 18 21 26 24 24 22 20 19 18 16 14 13 13 13 14 16 17 18 19 18 18 18 17 16 16 17 16 15 14 11 10 12 14 16 16 18 20 18 17 17 17 16 17 19 20 21 20 21 21 22 22 22 21 22 22 22 23 23 24 24 26 28 20 13 14 16 18 15 12 12 12 14 14 14 13 13 13 13 13 12 11 10 10
21 19 19 25 27 24 24 22 21 20 18 16 14 13 13 13 13 15 16 18 19 17 17 17 18 18 18 18 16 15 12 10 10 11 14 16 16 18 20 18 17 16 16 16 17 19 21 21 20 21 21 21 21 20 20 20 20 20 21 21 22 22 24 26 18 14 16 17 17 14 13 15 15 17 17 17 16 15 15 15 14 14 14 13 13
21 19 21 26 27 24 24 22 21 20 18 16 14 13 13 13 14 15 17 19 19 18 18 18 19 18 18 18 16 13 11 10 10 11 14 17 17 19 20 18 17 16 16 16 17 19 21 20 20 20 20 20 19 19 18 18 18 19 19 19 20 21 23 24 19 16 18 18 16 14 15 15 15 17 17 16 16 15 15 15 15 14 14 14 14
21 20 23 26 27 25 23 22 21 19 18 16 14 13 13 13 14 15 17 19 19 19 19 19 19 18 17 15 13 11 10 10 8 10 15 17 17 20 21 18 17 16 16 16 17 19 21 20 20 20 19 19 18 17 17 17 17 17 18 19 18 18 21 20 16 17 18 17 15 12 14 15 16 16 15 15 15 16 15 15 15 14 14 14 14
21 22 25 27 27 26 24 22 21 19 18 16 14 13 13 13 13 15 16 18 18 19 19 19 19 17 16 14 12 11 10 11 9 11 13 14 16 20 21 19 17 17 16 16 17 19 20 20 19 19 18 17 17 16 16 16 15 16 17 18 17 16 19 18 14 15 15 15 13 11 13 15 16 15 15 15 15 15 15 15 15 14 14 13 14
22 23 26 28 26 25 24 22 21 19 18 16 14 13 13 13 14 15 16 17 18 18 19 19 19 17 16 14 12 11 11 12 11 11 12 12 12 16 20 19 18 16 16 16 16 18 19 19 18 18 17 16 15 14 14 14 14 15 15 17 18 16 17 19 15 13 14 14 13 10 11 13 14 14 14 15 14 14 14 14 14 14 14 13 13
22 24 27 28 26 24 23 22 21 19 18 16 15 13 13 13 14 15 16 17 18 18 18 18 18 16 15 14 12 11 11 12 12 13 13 12 11 11 15 18 18 16 16 16 17 17 17 18 18 17 16 15 14 13 12 13 13 14 15 16 17 16 17 18 15 13 15 14 11 9 11 12 13 13 13 14 13 13 12 13 13 14 14 14 14
23 25 27 28 27 23 23 23 22 20 19 18 16 14 13 14 14 15 16 17 18 18 18 17 17 15 14 13 12 12 12 13 12 14 14 13 12 10 11 15 17 17 16 16 17 16 15 15 16 15 14 14 13 12 11 11 11 12 14 14 16 15 15 15 12 12 13 12 9 9 11 11 12 12 12 12 11 11 11 11 12 12 13 13 13
23 25 27 28 28 26 24 24 22 21 20 19 17 17 15 15 15 16 17 18 19 18 17 16 15 14 14 13 13 13 13 13 13 13 15 15 14 12 10 12 15 16 16 16 16 15 14 13 13 13 12 12 11 11 11 10 10 10 12 12 13 13 11 12 11 10 11 10 9 9 10 11 11 11 11 10 10 10 10 10 10 10 11 11 12
23 25 28 28 28 28 27 25 24 23 21 20 19 19 17 16 16 17 17 18 19 18 16 15 14 14 14 14 14 16 15 15 14 13 15 15 15 13 11 11 14 16 16 15 15 15 13 12 11 11 10 10 9 8 9 9 9 8 9 10 10 9 8 9 10 10 10 9 8 9 10 10 10 10 9 9 9 8 8 9 9 9 9 9 10
24 26 28 28 28 28 26 24 24 24 22 21 20 20 19 18 17 17 17 17 18 17 15 14 14 14 15 15 14 15 15 15 15 14 15 15 14 14 12 12 14 16 16 15 15 15 13 12 12 11 10 8 7 6 6 7 8 7 7 7 8 7 6 8 9 9 10 7 7 9 10 10 9 8 8 8 8 7 7 7 7 7 8 8 8
24 26 27 26 25 26 25 22 25 25 23 21 20 20 20 20 18 18 17 17 17 17 16 15 15 15 16 15 14 15 15 14 15 15 15 15 14 14 14 14 14 15 15 15 15 15 13 13 12 11 10 8 6 5 3 4 5 6 6 5 6 6 5 8 8 9 9 6 6 8 8 9 9 8 7 7 7 6 5 5 6 6 7 7 6
22 23 24 24 24 26 25 22 24 25 22 20 20 21 20 20 18 18 18 17 17 18 18 17 16 16 16 15 15 15 13 12 13 14 15 13 13 14 14 13 13 15 15 15 15 15 14 13 12 11 9 8 6 4 4 4 4 4 4 4 5 5 5 7 7 8 8 6 6 6 7 8 8 8 8 6 6 5 4 4 4 5 6 6 6
18 22 22 23 24 26 25 22 23 23 22 20 20 20 19 20 19 18 18 18 17 18 18 17 16 16 17 16 15 14 13 13 14 15 15 14 13 13 11 10 10 12 13 12 14 15 14 13 13 12 10 9 8 7 6 6 4 4 4 5 6 5 5 6 6 7 7 6 6 5 6 7 7 8 8 7 5 4 4 3 3 4 4 4 5
15 22 21 20 21 22 22 21 20 21 21 19 19 18 18 19 19 19 18 18 18 17 17 15 16 17 17 16 15 14 14 16 16 16 16 15 14 12 11 9 8 11 11 9 12 13 12 11 12 13 12 10 9 8 9 7 5 5 5 5 6 5 6 5 5 5 4 4 5 5 5 7 7 7 7 7 5 4 3 2 2 3 3 3 4
19 23 20 19 18 19 19 20 19 20 20 18 18 18 18 18 17 18 18 19 19 19 18 16 17 18 17 16 16 16 16 17 16 16 16 15 13 13 12 10 9 11 11 9 11 12 11 11 11 12 11 9 7 7 7 7 6 6 6 6 7 7 7 6 5 5 4 3 4 4 5 7 7 5 6 6 5 4 3 2 2 2 2 2 2
25 22 18 19 18 20 19 19 20 20 20 19 19 19 19 18 17 18 18 20 20 20 20 19 19 19 18 18 19 18 17 17 16 15 15 14 14 14 13 12 11 11 11 11 10 10 9 9 9 10 8 6 5 6 6 6 7 6 6 7 7 6 6 6 6 6 4 4 4 4 5 6 5 4 4 5 6 5 5 4 3 2 2 1 2
21 16 18 20 19 20 20 20 21 20 20 20 20 20 20 19 17 18 18 19 19 20 20 19 20 20 19 19 20 20 19 17 16 15 15 15 16 15 13 13 12 12 11 11 10 10 9 8 8 8 7 7 6 6 6 6 6 6 7 7 7 6 6 5 5 6 5 6 5 4 4 4 4 4 4 5 5 6 7 6 5 3 2 2 2
18 17 19 20 21 21 20 20 21 22 21 20 21 21 20 19 18 17 17 18 19 20 20 19 20 20 20 20 19 19 18 16 15 16 16 16 16 14 13 12 12 12 11 11 10 10 9 9 8 7 7 7 6 6 5 5 5 6 7 7 7 6 6 6 6 6 7 8 8 5 4 3 4 4 4 4 4 6 8 8 7 6 4 3 3
28 30 24 21 22 20 19 19 19 21 20 20 20 19 19 19 19 17 17 19 19 18 18 18 19 19 19 19 18 17 17 16 14 14 15 15 15 13 12 12 11 11 11 10 10 10 9 9 9 8 8 7 7 6 6 5 5 6 6 7 7 6 6 6 6 7 7 8 9 7 5 4 3 4 5 4 4 5 7 8 8 8 7 6 5
33 38 28 22 21 19 20 19 17 18 20 20 17 17 18 18 18 17 17 19 18 17 17 18 18 18 18 17 17 17 16 15 14 13 13 13 13 11 11 10 9 9 8 9 9 9 9 9 9 8 8 8 7 7 7 6 6 6 6 6 6 6 7 7 7 7 7 8 8 7 5 5 3 2 4 4 4 4 5 6 7 8 9 9 9
29 37 33 27 23 21 21 18 17 18 19 18 16 17 18 17 17 17 18 17 15 16 17 18 19 19 19 18 17 17 16 15 13 13 12 12 11 10 9 8 8 7 7 7 7 8 8 8 9 9 8 8 7 7 7 7 8 7 5 5 6 6 7 7 8 9 8 7 7 6 6 6 4 2 3 4 4 3 3 4 6 8 10 11 11
28 34 33 28 25 23 22 20 18 18 17 16 17 18 18 18 18 17 16 15 13 15 17 18 20 21 20 19 18 17 16 15 13 13 12 11 11 9 8 7 7 8 8 8 7 7 8 8 8 8 8 6 6 7 6 7 9 9 7 7 6 8 9 9 9 9 8 6 6 7 7 7 6 5 3 3 3 3 2 2 4 6 7 8 10
27 28 27 24 24 23 22 21 17 16 19 19 19 19 18 19 19 18 16 14 14 16 17 18 21 23 21 19 18 17 16 15 13 13 12 11 10 9 8 7 7 7 8 8 8 8 8 8 8 6 6 6 6 7 7 8 11 11 11 10 9 10 10 9 8 7 7 6 6 7 8 7 6 6 5 3 2 3 3 2 3 4 4 5 6
25 24 22 20 19 19 19 20 18 17 20 20 18 18 19 20 19 17 16 14 15 16 17 19 21 22 18 16 17 16 15 15 14 13 13 11 10 9 8 7 7 7 8 8 7 8 8 8 7 6 6 6 5 6 7 9 10 10 10 9 9 9 8 7 6 6 7 7 6 6 6 7 7 6 6 5 3 2 4 4 3 3 3 3 5
27 24 21 19 18 19 18 18 19 18 19 19 18 18 20 20 18 17 16 14 15 16 18 19 20 18 15 14 16 16 15 15 14 14 13 11 9 9 9 8 7 7 7 7 7 8 8 7 7 6 6 6 6 7 7 7 8 8 8 8 8 8 6 6 6 6 8 7 7 7 7 7 6 6 6 5 5 3 3 4 3 2 2 3 4
25 21 18 17 17 18 18 18 19 18 19 20 19 18 19 19 18 16 15 14 16 17 19 20 18 17 16 15 16 16 16 15 14 13 13 11 10 10 9 8 8 8 7 7 7 8 8 7 7 7 7 6 6 7 7 7 7 8 8 8 8 7 6 6 6 7 8 7 7 7 7 7 7 6 6 5 5 3 3 4 3 2 1 1 2
21 17 15 14 15 17 19 21 20 19 20 20 18 18 19 19 17 15 14 15 17 18 18 18 16 16 16 16 17 16 15 15 13 12 12 11 11 10 9 8 8 8 7 7 7 8 8 7 6 7 7 7 7 7 7 8 7 7 7 7 7 6 6 5 6 6 7 8 7 7 7 7 7 7 6 6 5 4 4 4 3 2 1 1 2
17 15 12 13 15 20 23 22 21 19 19 19 17 16 18 18 16 15 15 16 18 19 18 16 14 14 14 14 16 16 14 13 12 12 11 11 11 10 9 8 8 8 8 7 7 8 8 8 7 6 7 7 7 7 7 8 7 6 6 6 5 5 5 5 5 5 6 7 8 7 7 7 7 6 6 7 6 4 4 3 2 2 2 1 3
12 10 8 10 14 20 23 23 21 16 15 18 18 17 18 18 16 16 17 18 19 19 18 16 15 15 13 12 12 13 13 12 11 11 11 10 10 10 9 9 8 9 8 8 8 8 8 8 7 6 6 6 6 6 6 7 7 7 7 6 5 5 4 4 4 4 5 7 8 7 6 6 6 5 6 7 6 5 4 4 3 2 1 1 2
9 8 8 9 11 15 18 20 18 13 12 15 17 18 19 18 17 17 17 18 19 19 18 17 16 15 15 13 12 12 11 11 11 10 10 9 9 9 9 9 9 8 8 9 9 9 8 8 7 7 6 5 6 7 7 6 6 6 7 7 6 5 4 4 5 4 4 5 6 7 6 6 6 6 6 6 5 4 4 3 3 3 2 1 1
9 9 9 11 12 12 13 14 14 13 13 14 16 18 18 18 18 17 17 18 19 18 17 16 16 15 16 15 13 12 11 10 10 10 10 9 9 8 8 9 9 8 8 9 9 9 8 9 8 8 7 6 6 7 8 7 6 6 6 6 6 6 6 7 6 6 5 4 5 5 5 5 5 6 6 5 4 3 3 3 3 3 3 1 0
9 9 10 11 13 15 14 14 15 15 15 16 17 17 18 18 16 15 16 17 17 17 16 16 16 15 16 15 13 13 11 10 9 9 8 8 8 8 8 9 9 9 8 7 8 9 8 9 9 8 7 6 6 7 9 9 6 6 6 5 6 7 8 8 6 6 7 5 6 5 4 5 4 5 5 5 5 4 3 3 3 3 3 3 2
8 9 11 11 11 13 15 16 16 15 16 18 18 17 18 18 16 15 17 17 16 17 17 17 16 16 16 15 13 12 10 9 8 8 7 7 8 8 8 9 9 9 9 7 7 8 8 8 8 8 7 6 5 6 9 9 6 6 5 4 5 6 5 8 7 5 6 6 6 5 4 5 4 4 4 5 5 5 4 4 4 4 4 4 3
8 9 10 10 9 11 14 15 14 13 15 18 17 16 18 18 18 18 17 16 16 17 17 16 16 15 15 14 12 11 9 8 8 7 7 7 7 8 8 8 8 8 8 8 7 8 8 8 8 7 7 6 6 5 7 8 7 7 6 5 4 2 2 8 7 6 6 5 5 5 5 4 4 4 4 4 4 4 5 5 4 4 4 4 3
8 9 9 8 9 9 12 14 13 12 14 16 15 16 17 17 18 18 17 15 16 16 15 15 15 13 12 12 11 10 9 8 8 7 7 7 7 8 8 8 7 7 7 7 7 7 8 8 8 7 6 7 7 6 6 7 7 8 8 6 3 1 4 7 7 8 9 6 6 5 5 6 5 5 5 5 5 4 6 5 4 4 4 3 1
8 8 8 7 8 9 10 13 13 12 12 13 14 15 17 19 19 18 15 14 14 15 15 14 13 11 11 11 10 9 9 8 8 7 7 7 7 7 8 8 7 7 6 6 6 7 7 7 7 7 7 7 8 8 8 8 7 7 9 7 3 3 5 6 6 7 9 9 8 7 6 7 7 7 6 6 6 6 6 6 5 5 4 3 3
8 6 7 7 8 11 11 12 14 13 12 12 13 15 17 19 18 16 14 13 13 14 14 13 12 11 11 11 10 9 9 8 8 8 8 7 7 7 7 7 7 7 6 6 6 6 6 6 5 6 6 6 8 9 9 9 9 8 8 7 5 5 4 4 5 5 6 8 9 9 9 8 7 6 6 6 7 6 6 6 7 7 6 5 6
9 8 9 9 10 11 12 11 13 14 12 12 14 15 16 17 15 13 13 13 13 12 12 13 13 12 12 12 11 10 9 9 9 9 9 8 8 8 8 8 7 7 7 6 6 6 6 6 5 5 5 5 7 8 8 9 10 10 9 9 9 8 6 5 5 5 6 7 8 10 10 8 7 6 6 7 7 5 5 6 7 8 7 6 7
9 11 12 11 11 11 12 11 10 12 12 13 15 16 16 15 13 11 12 13 12 11 12 13 13 12 12 12 11 10 10 9 10 11 11 10 10 10 9 9 8 8 7 6 6 5 6 7 6 5 6 6 6 7 7 7 8 9 10 11 11 10 7 5 6 6 6 6 8 11 9 8 7 6 7 9 8 6 5 6 8 9 9 8 9
Wind_Direction
180 179 173 170 170 170 171 170 168 167 165 162 162 161 162 163 166 164 163 161 161 160 155 151 149 148 146 144 140 134 132 135 141 143 145 146 144 140 135 130 124 117 113 112 109 105 102 100 100 98 96 93 89 85 82 81 83 89 106 121 122 122 120 113 112 106 92 91 94 96 97 98 97 97 97 96 97 96 95 92 89 88 84 84 83
168 174 173 171 171 170 171 169 169 166 163 161 161 161 161 164 167 166 164 164 163 163 159 156 154 153 150 147 144 139 134 133 141 145 144 145 141 134 131 129 122 117 115 114 113 109 105 105 103 99 96 93 91 86 83 81 82 87 99 114 119 122 121 115 114 106 94 90 91 95 97 98 97 96 96 97 99 98 96 93 86 81 82 86 89
160 169 171 170 170 169 170 169 169 165 162 161 163 163 162 164 167 167 166 166 166 166 164 162 161 158 154 151 147 144 138 134 142 144 141 138 135 130 128 126 120 119 118 117 115 111 109 109 104 100 96 92 91 87 85 84 83 87 96 107 113 120 121 119 117 108 99 93 90 92 95 95 95 95 95 97 98 98 97 93 86 81 84 89 93
159 165 169 169 168 169 169 169 168 164 162 161 164 163 164 165 166 167 168 168 168 167 168 167 165 161 157 154 150 147 142 139 145 143 140 138 137 134 130 127 124 123 122 120 117 114 113 113 108 102 97 92 91 88 87 86 87 89 94 104 111 120 121 119 118 111 100 93 90 88 88 90 92 93 94 95 93 93 91 85 82 83 86 88 90
158 162 167 166 167 169 169 169 167 163 161 161 164 164 166 168 168 169 170 171 171 171 171 171 168 163 159 158 155 151 148 144 147 144 142 142 141 138 135 134 132 128 126 123 118 117 118 118 112 105 100 95 93 91 89 88 89 91 94 101 110 117 117 117 118 114 99 83 82 86 88 87 88 87 86 87 89 91 88 81 76 81 87 88 89
157 161 164 165 167 169 169 169 166 161 161 161 162 163 166 169 172 173 174 175 175 175 173 173 170 165 162 161 158 156 153 149 150 148 145 145 142 140 141 139 136 133 131 126 120 119 122 121 115 108 102 97 96 94 92 90 89 91 93 99 107 112 113 114 115 119 101 80 77 84 91 91 90 90 90 89 96 98 92 84 71 76 85 88 89
156 162 164 165 167 168 168 167 164 160 159 160 160 159 163 168 173 176 178 179 179 178 175 175 172 167 165 162 161 160 156 155 156 151 146 145 142 144 146 142 138 138 134 127 124 121 120 122 119 111 104 100 99 97 95 93 91 91 92 97 103 108 111 111 112 119 104 90 88 85 85 90 93 102 112 103 97 98 91 82 68 71 80 84 87
154 160 163 166 168 168 166 166 162 159 158 157 158 158 161 165 170 176 180 181 182 180 175 175 172 166 164 163 163 161 158 158 159 152 146 145 148 149 147 143 140 138 132 127 126 120 116 121 122 114 108 104 102 99 98 95 93 92 92 94 98 103 107 108 111 110 98 98 100 90 82 82 88 98 111 95 79 82 80 85 80 78 82 86 87
154 156 161 166 168 166 165 165 161 158 158 157 159 158 160 164 168 174 178 182 182 178 174 172 168 163 161 160 159 158 157 158 158 155 149 150 154 151 147 143 140 137 133 131 127 120 118 122 121 116 111 108 105 102 100 99 97 94 93 93 95 97 100 104 107 102 95 99 99 95 92 87 88 87 91 86 77 71 67 78 86 91 90 87 85
154 158 159 163 166 164 165 164 159 158 160 160 161 161 162 165 169 171 175 178 177 174 171 168 164 161 158 157 156 153 153 156 159 161 159 161 159 152 147 144 142 140 137 136 131 125 124 123 121 119 114 111 107 104 103 101 100 97 96 95 94 95 97 98 96 94 95 98 99 102 105 108 107 86 83 84 82 76 69 71 77 90 92 89 87
154 161 157 161 163 163 164 162 160 161 162 164 163 164 165 167 169 170 172 173 173 172 170 167 163 162 160 160 158 153 151 153 158 167 169 169 165 155 150 147 145 143 141 142 138 132 129 127 124 120 117 113 109 106 104 102 101 100 99 97 96 96 97 95 89 90 96 97 92 87 87 98 99 86 84 83 84 84 80 78 81 88 91 91 89
157 159 158 161 162 163 164 162 163 165 165 166 164 165 164 165 167 167 168 169 169 169 169 168 165 164 162 161 160 158 156 156 163 173 173 172 169 158 153 150 147 146 146 147 143 137 133 131 126 122 118 114 111 108 105 103 102 101 100 98 98 97 94 92 91 94 95 93 88 85 82 85 88 86 85 84 86 85 84 84 85 87 88 89 88
160 158 160 162 162 164 165 165 167 169 169 168 166 165 162 161 162 162 165 166 164 163 167 167 164 163 161 160 160 160 157 157 167 176 172 170 170 159 154 151 149 150 151 153 146 138 136 134 130 125 121 117 114 111 108 105 104 102 101 99 97 95 92 92 98 101 96 92 90 95 93 86 85 85 85 85 85 85 85 86 86 85 85 87 87
162 161 161 162 163 164 166 168 170 171 171 170 169 163 158 154 156 159 163 164 161 160 164 165 164 162 162 161 160 160 154 155 168 178 171 167 168 160 156 154 152 156 158 158 148 141 139 138 134 129 125 121 117 114 113 110 108 106 103 100 98 96 93 93 98 101 97 93 88 88 87 86 85 84 87 88 87 86 86 85 85 84 84 85 86
162 162 162 164 165 164 167 169 171 172 171 172 168 161 156 150 151 156 160 162 161 161 162 164 164 163 163 163 164 164 161 167 176 178 171 167 168 162 157 156 157 161 165 162 151 144 141 140 138 134 129 125 122 119 117 115 113 110 107 103 100 101 97 93 97 98 94 90 89 87 85 85 84 82 86 89 89 87 86 85 84 83 82 83 83
165 164 164 168 167 164 168 169 171 171 171 172 165 160 155 147 147 152 157 159 159 159 159 161 163 163 164 165 164 160 160 170 177 176 169 163 166 165 161 159 162 166 168 165 156 148 143 144 142 137 132 128 127 124 121 120 116 113 111 107 103 102 101 101 101 95 93 93 93 89 83 82 83 83 85 87 87 87 87 86 84 82 82 80 79
168 168 168 171 168 165 167 167 169 169 169 169 163 160 154 147 146 150 154 156 157 158 159 160 161 162 164 164 160 154 154 162 171 171 162 154 160 167 167 164 164 168 169 166 159 154 149 147 144 140 137 133 132 128 126 124 121 117 112 110 107 103 104 106 102 102 106 102 98 95 87 84 86 87 86 85 84 84 86 87 85 83 83 81 79
171 171 172 172 168 165 166 167 166 166 165 162 159 157 154 148 147 150 153 156 158 160 162 161 161 162 164 162 158 152 148 155 161 158 154 153 156 166 171 170 170 171 173 168 163 161 155 151 148 144 141 137 135 133 131 127 125 120 116 114 109 107 106 101 97 105 107 99 102 111 100 92 90 88 85 84 85 85 84 85 86 86 86 84 81
172 171 171 173 171 166 167 169 166 166 165 160 157 153 154 149 147 151 152 155 156 158 163 162 161 163 163 160 155 151 147 151 151 148 152 156 157 163 172 177 180 179 178 173 167 167 163 158 154 149 146 143 140 138 136 133 128 124 121 116 113 113 104 95 93 97 99 99 110 118 108 100 93 87 82 80 82 84 84 85 86 88 89 86 85
173 170 171 172 172 169 170 170 168 170 168 165 161 154 153 149 147 151 153 155 155 158 162 161 161 163 164 161 157 154 150 147 144 145 151 155 159 167 176 183 189 189 185 178 173 173 170 166 162 156 152 150 147 142 139 137 132 128 123 118 119 114 101 99 101 97 96 99 107 115 115 107 99 93 88 82 76 75 79 83 84 85 85 86 87
175 174 174 171 172 174 173 172 170 172 169 168 164 155 152 148 147 150 154 155 156 160 161 162 164 166 168 166 164 157 151 147 144 148 152 155 162 169 183 189 194 199 193 185 180 180 177 174 173 167 162 158 156 146 139 136 134 130 123 124 120 109 106 109 103 94 87 86 97 110 113 108 104 100 95 90 80 71 72 78 80 81 84 88 89
179 179 176 172 174 175 172 171 170 170 169 170 165 157 150 146 147 149 153 154 158 161 161 163 165 169 169 166 164 157 153 150 145 152 156 161 167 171 188 197 199 204 199 193 190 188 186 185 183 181 176 170 169 161 148 140 137 132 128 126 113 111 124 112 102 96 93 98 102 104 104 102 104 102 101 101 94 84 77 75 73 74 81 85 88
184 181 175 171 171 169 169 170 170 169 170 174 168 158 151 147 151 154 155 156 159 161 162 165 167 170 168 163 161 156 153 148 148 158 161 164 170 178 192 202 203 205 201 199 200 198 197 198 195 191 186 180 182 186 180 163 146 138 134 120 112 130 131 105 104 102 104 112 99 100 104 99 99 99 97 97 98 98 91 81 71 69 69 72 79
188 181 173 168 169 168 169 170 172 173 172 173 167 157 153 150 154 158 158 159 162 162 164 168 169 170 168 162 160 156 151 149 156 162 160 162 173 186 196 200 199 201 202 203 206 207 207 210 208 202 196 190 189 196 198 186 166 154 147 134 137 150 122 104 111 110 111 110 91 96 103 100 98 92 81 73 81 90 91 85 71 65 63 62 66
194 184 172 168 172 170 171 173 174 177 175 174 169 161 159 156 155 160 161 163 164 163 164 166 168 169 168 165 162 159 156 157 160 161 160 161 169 179 183 181 182 189 193 199 208 212 214 219 220 214 208 205 194 188 193 196 195 198 187 160 156 153 125 122 128 120 117 101 87 93 97 97 96 90 77 65 66 70 81 89 75 64 55 52 56
223 187 176 172 172 168 171 177 176 177 177 176 174 169 167 163 160 164 168 166 165 164 163 165 168 169 169 169 166 161 160 162 161 161 159 158 159 159 159 162 163 172 174 186 203 208 208 213 222 220 218 218 208 195 198 200 201 205 198 174 164 154 143 146 139 129 127 99 91 98 95 94 99 95 74 66 66 61 65 77 82 73 58 43 45
216 185 179 176 172 174 177 181 180 179 175 173 177 177 173 170 165 167 173 172 170 168 166 168 171 172 173 170 164 160 162 165 162 159 155 152 154 154 157 159 157 165 165 174 192 197 201 208 219 223 223 221 212 204 206 203 196 197 194 178 170 164 157 155 146 140 147 130 106 98 97 96 99 92 64 64 68 61 60 61 62 60 63 46 34
181 173 177 179 178 181 184 186 187 185 180 178 180 181 178 176 170 167 174 176 174 172 171 173 173 173 174 168 163 162 163 165 163 158 155 154 157 158 158 157 157 163 164 167 178 184 191 201 208 212 208 194 188 191 199 203 196 191 188 179 175 171 162 159 158 153 153 154 131 100 100 98 85 71 56 61 63 61 60 56 55 47 47 42 31
156 171 179 182 186 185 188 193 192 190 186 184 183 183 182 179 172 168 173 176 176 177 176 175 174 172 170 165 165 163 162 164 165 161 159 161 160 158 158 158 160 163 162 162 167 171 177 187 190 190 180 169 178 183 184 195 192 185 186 183 181 179 173 167 165 158 154 158 150 119 113 107 81 64 51 55 59 61 58 51 55 55 51 47 37
158 190 187 184 190 191 193 196 196 193 188 187 186 183 181 180 175 171 176 178 176 177 177 176 175 173 168 166 167 163 160 163 167 166 165 166 163 160 162 164 166 165 164 163 166 171 176 183 183 179 171 164 177 177 170 179 183 185 185 186 187 188 183 174 170 160 154 159 154 137 133 126 92 74 54 53 64 65 59 53 55 58 63 66 58
169 184 192 192 193 199 199 199 202 198 190 188 188 184 183 183 178 172 177 180 177 177 181 182 178 176 173 171 168 162 159 161 166 170 170 169 163 162 166 168 169 166 167 169 172 176 179 185 184 184 180 176 181 178 167 164 173 182 183 187 188 189 187 179 179 171 164 165 153 139 142 136 99 77 68 67 79 78 65 57 55 60 70 72 69
163 169 179 190 196 205 203 199 203 201 193 190 187 187 188 186 179 173 177 181 181 184 188 188 183 182 180 174 168 163 163 164 166 171 173 170 166 166 167 166 166 166 171 175 175 178 181 187 187 189 190 187 187 184 179 173 173 172 174 186 184 189 191 186 187 178 177 171 145 138 154 146 129 88 81 87 101 103 83 65 58 63 76 79 75
152 156 163 178 192 204 207 200 198 197 194 195 196 193 189 187 185 182 181 182 185 189 190 189 189 190 184 177 173 168 168 169 168 171 173 171 168 167 166 166 171 175 179 179 178 177 179 185 186 187 193 193 191 189 186 186 186 172 162 174 182 191 191 194 197 186 180 163 131 143 166 155 159 151 88 89 110 126 115 81 68 70 82 86 80
153 160 166 176 186 200 208 202 196 196 199 207 208 200 193 192 193 191 189 190 191 192 192 192 193 193 187 179 176 174 173 172 172 175 174 174 171 170 172 178 188 188 182 176 176 177 177 181 181 183 188 186 188 183 171 182 190 183 174 171 181 189 188 199 204 191 178 152 134 153 161 159 166 161 126 93 92 110 122 101 83 77 86 93 84
166 170 174 180 186 194 199 197 195 200 206 208 205 203 201 200 202 200 197 199 197 194 194 195 195 193 188 180 176 178 178 174 176 179 177 176 175 176 181 191 199 191 182 180 178 177 177 180 177 179 183 178 182 176 170 188 194 195 195 191 197 195 190 198 192 175 165 147 142 151 152 161 171 165 156 141 94 77 72 96 121 101 99 104 94
172 171 177 182 189 194 195 198 200 204 208 207 205 205 204 205 208 206 203 199 195 192 194 199 197 192 185 177 178 180 181 177 178 182 180 177 177 181 190 201 201 192 191 191 187 184 186 188 184 182 179 169 166 167 180 202 199 195 194 196 205 199 191 187 163 157 164 154 147 148 157 168 173 176 170 160 145 96 62 82 130 132 122 114 107
174 178 183 184 189 196 198 201 201 204 208 208 209 207 206 208 208 206 202 199 198 192 194 198 194 188 181 178 182 183 181 181 182 185 182 176 177 186 198 205 198 199 207 201 193 195 198 198 193 190 175 155 159 173 186 197 188 182 183 190 201 194 184 169 149 163 167 161 161 162 173 174 173 180 176 175 167 145 86 84 105 130 146 136 116
178 185 192 193 195 200 198 195 198 205 205 202 207 209 207 206 200 196 198 201 198 189 189 193 188 184 185 184 185 185 183 185 188 187 182 178 184 195 205 208 204 208 211 200 195 198 199 200 203 201 181 160 172 185 186 180 173 176 185 193 197 192 189 170 159 169 166 169 177 176 181 179 180 181 177 184 175 163 131 96 86 96 146 159 134
181 185 198 206 208 212 207 200 203 208 203 198 204 207 200 198 195 191 198 202 194 187 188 191 187 186 191 189 185 187 187 187 189 187 184 186 196 205 210 212 211 210 205 197 198 200 199 202 207 204 189 178 180 180 178 178 174 171 176 186 191 193 197 178 163 168 170 177 180 178 183 185 188 185 182 182 173 169 144 114 112 114 129 183 163
185 188 199 200 203 213 214 211 209 208 205 199 200 200 195 197 199 195 199 197 187 185 188 190 191 191 197 194 185 185 188 188 187 187 192 198 205 210 213 213 209 206 201 196 198 201 201 201 203 201 194 189 180 174 180 179 167 150 147 161 168 172 184 175 159 160 168 175 179 180 184 188 187 184 187 182 174 177 158 142 142 110 109 151 164
187 192 195 192 198 209 213 214 211 208 207 201 196 196 194 195 199 195 193 191 185 184 188 191 192 193 197 196 186 182 185 190 190 191 199 205 209 213 213 210 204 202 200 195 196 198 196 198 198 195 192 188 175 171 181 173 155 143 142 145 140 142 163 160 155 160 162 168 176 178 179 183 175 169 187 187 177 180 173 162 147 121 147 173 161
189 196 197 196 199 207 212 215 214 210 202 194 196 198 196 198 199 191 185 187 186 184 187 190 190 194 195 192 189 187 186 190 193 196 201 204 210 214 212 206 202 202 197 196 199 196 196 196 194 190 184 184 178 173 173 161 156 156 149 144 140 139 144 154 167 167 151 151 158 166 178 180 173 171 178 181 174 167 161 156 151 149 179 275 2
199 202 202 194 188 194 205 213 215 215 206 197 200 199 196 198 195 185 181 185 187 186 188 190 190 193 193 190 191 191 192 195 198 200 201 203 207 208 209 204 199 196 193 196 199 197 198 194 189 188 185 185 184 176 171 162 161 169 165 160 166 165 154 161 170 154 139 136 132 146 166 171 180 185 171 162 162 159 154 148 157 168 168 187 271
206 201 206 196 185 187 193 202 207 210 210 201 197 195 192 192 186 181 183 185 188 187 187 190 190 191 191 191 194 195 196 199 199 200 201 203 202 203 208 204 198 193 189 194 200 198 198 195 190 187 184 188 189 188 182 172 162 171 183 184 191 195 172 157 153 137 136 135 125 129 140 148 174 182 167 164 168 171 172 158 166 192 187 192 194
208 199 204 200 194 193 192 202 208 205 204 195 190 191 185 181 178 181 185 185 186 185 185 186 187 191 192 191 196 199 197 194 193 194 198 198 199 203 208 209 207 201 192 190 198 199 192 192 195 188 184 184 185 197 193 183 175 176 190 189 196 221 181 150 147 127 124 121 120 127 130 141 159 156 151 165 177 182 181 176 185 204 213 221 227
202 200 199 193 199 202 195 202 204 196 199 195 188 185 176 174 181 182 181 181 182 183 184 185 187 191 189 188 197 199 192 189 186 190 196 195 197 201 203 208 210 206 202 194 194 199 189 189 198 192 189 186 179 188 195 191 191 188 187 176 185 243 152 156 165 138 128 125 124 130 131 136 143 143 140 146 163 179 182 185 197 208 219 227 239
197 201 193 185 190 196 199 205 198 191 202 198 183 175 172 177 183 181 177 178 181 184 186 188 190 190 186 187 192 189 184 184 183 189 194 191 193 195 195 199 201 201 203 198 194 197 193 190 193 189 190 193 183 181 191 195 200 202 195 177 169 175 152 171 182 158 150 147 137 139 147 147 139 140 144 145 156 178 188 188 190 201 210 212 206
188 197 196 187 181 184 196 208 206 204 210 200 183 178 178 181 181 178 176 176 182 186 185 186 186 186 186 184 182 179 179 181 183 188 189 188 190 188 188 191 191 189 188 189 188 189 192 189 187 185 186 193 188 179 186 191 193 207 206 192 174 168 164 177 193 177 162 152 147 147 150 151 153 157 156 159 171 183 186 180 176 179 174 142 126
181 196 200 184 181 191 196 207 216 216 211 199 186 183 184 181 175 174 173 173 182 186 182 179 178 179 180 175 172 175 177 180 183 186 186 186 187 184 182 183 181 181 180 185 189 187 191 190 188 189 187 191 190 183 188 191 189 200 203 194 183 180 177 180 193 190 167 155 155 155 152 152 161 164 159 163 172 177 177 171 168 165 150 130 125
197 203 199 181 176 187 190 198 212 211 203 193 183 181 184 178 169 171 175 177 185 185 177 173 170 171 174 173 173 175 177 182 183 184 185 185 187 185 181 182 183 182 185 193 200 198 203 204 199 203 201 198 196 192 194 194 193 195 191 187 186 183 184 185 187 183 169 162 159 159 159 161 164 161 158 161 155 155 166 163 158 151 137 128 127
183 189 192 179 167 171 176 180 191 192 188 184 179 180 182 176 170 177 182 183 184 178 170 168 168 172 175 174 176 176 177 182 183 186 189 185 186 186 181 183 186 186 189 196 200 205 213 214 207 208 210 205 202 199 200 201 202 200 193 190 186 178 180 191 187 181 175 165 157 156 157 157 158 156 154 147 128 118 142 151 146 139 130 123 122